FREGAT R/B, 49811

Orbit data source: Space-Track

FREGAT R/B, 49811 is space debris originally from a launch on Sun, 05 Dec 2021 UTC launched from the French Guiana (FRGUI). Debris objects in space refer to the collection of defunct objects orbiting the Earth. Examples of debris include non-operational satellites, rocket bodies, and fragments generated from explosions, collisions, or faulty payload assembly.

Loading next visibility...
Identifier
49811, 2021-116C
Orbit
Active
Country
Flag of CISCIS
Related business
Manufacturer
Lavochkin
Mission
Spacecraft
Bus & Motor
FREGAT, Unknown motor
Mass
1,050 kg wet, 1,050 kg dry
Launch date (UTC)
2021-12-05 (5 years ago)
Launch vehicle
Unknown
Launch site
French Guiana (FRGUI)
Object type
Payload
Rocket body
Debris
Shape & HBR
Irr, 1.6 m
Radar Cross Section
11.055 m², Large (>1 m²)

Expand to show TLE details & history
Last TLE update: 2 days ago

TLE from 2 days ago
0 FREGAT R/B
1 49811U 21116C   26171.32806073 -.00000097  00000-0  00000+0 0  9996
2 49811  57.1654 343.0559 0009493 243.5415 116.3564  1.67734300 27827
Epoch: 2026-06-20T07:52Z
TLE epoch observation values (Epoch: 2026-06-20T07:52:24.447Z)
Latitude
-0.00001°
Longitude
-43.60049°
Altitude
23,556.54 km
Speed
3.648 km/s
True Right ascension
22h 52m 10s
True Declination
0° 00' 00"
Sunlit
Object was in daylight at epoch
Visualization orbit readout
Latitude
Unknown
Longitude
Unknown
Altitude
Unknown
Speed
Unknown
Apparent Right ascension
Unknown
Apparent Declination
Unknown
Sunlit
N/A
Visualization observer readout
Local Sidereal Time
21:31:13
Azimuth
Unknown
Elevation
Unknown
Doppler factor
Unknown
Orbital elements
Apogee altitude
23,571.967 km
Perigee altitude
23,515.158 km
Semi-major axis
29,921.7 km
Eccentricity
0.00095
Inclination
57.1654°
RAAN
343.0559°
Arg. of periapsis
243.5415°
True anomaly
116.45382°
Mean anomaly
116.3564°
Eccentric anomaly
116.40512°
Mean motion
0.41934 °/min
Orbital period
858.5 mins
BSTAR
0
Loading maneuver chart data...
Computing Atmospheric mass density...
Loading historical data...
Loading historical data...
Loading historical data...
Loading historical data...
Loading historical data...
Loading historical data...
Loading historical data...
Other satellites on launch #116 in the year 2021 (2021-12-05 UTC)

Documentation

Showing up to 5 results
|